Hourly Weather Mbandaka

Today, 23 September, Wednesday

Time Temperature Precipitation Wind Pressure Humidity
00:00 +23°C° 0.1 mm 1 mps 731 mmHg 96%
01:00 +23°C° 0 mm 1 mps 731 mmHg 96%
02:00 +23°C° 0 mm 1 mps 731 mmHg 96%
03:00 +23°C° 0 mm 1 mps 731 mmHg 97%
04:00 +22°C° 0 mm 1 mps 731 mmHg 97%
05:00 +23°C° 0 mm 1 mps 731 mmHg 96%
06:00 +24°C° 0 mm 1 mps 732 mmHg 94%
07:00 +25°C° 0 mm 1 mps 733 mmHg 92%
08:00 +27°C° 0.2 mm 1 mps 733 mmHg 83%
09:00 +29°C° 0.2 mm 1 mps 733 mmHg 75%
10:00 +31°C° 0.2 mm 1 mps 733 mmHg 66%
11:00 +31°C° 0.8 mm 1 mps 732 mmHg 67%
12:00 +31°C° 0.8 mm 1 mps 731 mmHg 68%
13:00 +31°C° 0.8 mm 1 mps 730 mmHg 69%
14:00 +31°C° 0.4 mm 1 mps 729 mmHg 70%
15:00 +30°C° 0.4 mm 1 mps 729 mmHg 72%
16:00 +30°C° 0.4 mm 1 mps 728 mmHg 74%
17:00 +29°C° 0 mm 1 mps 729 mmHg 78%
18:00 +27°C° 0 mm 1 mps 729 mmHg 83%
19:00 +26°C° 0 mm 1 mps 730 mmHg 88%
20:00 +25°C° 0.4 mm 1 mps 730 mmHg 90%
21:00 +25°C° 0.4 mm 1 mps 731 mmHg 92%
22:00 +25°C° 0.4 mm 1 mps 732 mmHg 95%
23:00 +24°C° 0.1 mm 1 mps 731 mmHg 95%

Tomorrow, 24 September, Thursday

Time Temperature Precipitation Wind Pressure Humidity
00:00 +24°C° 0.1 mm 1 mps 731 mmHg 95%
01:00 +24°C° 0.1 mm 1 mps 731 mmHg 95%
02:00 +24°C° 0 mm 1 mps 731 mmHg 95%
03:00 +24°C° 0 mm 1 mps 731 mmHg 95%
04:00 +24°C° 0 mm 1 mps 730 mmHg 95%
05:00 +24°C° 0 mm 1 mps 731 mmHg 94%
06:00 +24°C° 0 mm 2 mps 732 mmHg 93%
07:00 +25°C° 0 mm 2 mps 733 mmHg 92%
08:00 +25°C° 1.3 mm 2 mps 733 mmHg 92%
09:00 +26°C° 1.3 mm 2 mps 733 mmHg 91%
10:00 +26°C° 1.3 mm 2 mps 733 mmHg 91%
11:00 +26°C° 1.7 mm 2 mps 732 mmHg 90%
12:00 +27°C° 1.7 mm 3 mps 732 mmHg 88%
13:00 +27°C° 1.7 mm 3 mps 731 mmHg 87%
14:00 +27°C° 0 mm 3 mps 730 mmHg 83%
15:00 +27°C° 0 mm 3 mps 730 mmHg 80%
16:00 +27°C° 0 mm 3 mps 729 mmHg 77%
17:00 +26°C° 0 mm 2 mps 730 mmHg 82%
18:00 +25°C° 0 mm 1 mps 730 mmHg 86%
19:00 +22°C° 0 mm 0 mps 731 mmHg 91%
20:00 +21°C° 0 mm 0 mps 731 mmHg 92%
21:00 +21°C° 0 mm 0 mps 731 mmHg 93%
22:00 +23°C° 0 mm 1 mps 732 mmHg 94%
23:00 +21°C° 0 mm 0 mps 732 mmHg 94%

Day after tomorrow, 25 September, Friday

Time Temperature Precipitation Wind Pressure Humidity
00:00 +21°C° 0 mm 0 mps 732 mmHg 94%
01:00 +21°C° 0 mm 0 mps 732 mmHg 94%
02:00 +21°C° 0 mm 0 mps 732 mmHg 93%
03:00 +21°C° 0 mm 0 mps 731 mmHg 93%
04:00 +21°C° 0 mm 0 mps 731 mmHg 93%
05:00 +21°C° 0 mm 0 mps 732 mmHg 91%
06:00 +22°C° 0 mm 0 mps 733 mmHg 89%
07:00 +22°C° 0 mm 0 mps 733 mmHg 87%
08:00 +23°C° 0.2 mm 0 mps 734 mmHg 87%
09:00 +25°C° 0.2 mm 1 mps 734 mmHg 86%
10:00 +26°C° 0.2 mm 1 mps 734 mmHg 85%
11:00 +26°C° 0.6 mm 1 mps 733 mmHg 86%
12:00 +26°C° 0.6 mm 1 mps 733 mmHg 87%
13:00 +26°C° 0.6 mm 1 mps 732 mmHg 89%
14:00 +26°C° 0.9 mm 1 mps 731 mmHg 90%
15:00 +25°C° 0.9 mm 1 mps 731 mmHg 91%
16:00 +25°C° 0.9 mm 2 mps 730 mmHg 93%
17:00 +24°C° 0 mm 1 mps 731 mmHg 94%
18:00 +24°C° 0 mm 1 mps 731 mmHg 95%
19:00 +23°C° 0 mm 1 mps 731 mmHg 97%
20:00 +23°C° 0 mm 1 mps 731 mmHg 97%
21:00 +23°C° 0 mm 1 mps 732 mmHg 98%
22:00 +22°C° 0 mm 1 mps 732 mmHg 98%
23:00 +22°C° 0 mm 1 mps 731 mmHg 98%

26 September, Saturday

Time Temperature Precipitation Wind Pressure Humidity
00:00 +22°C° 0 mm 1 mps 731 mmHg 99%
01:00 +22°C° 0 mm 1 mps 731 mmHg 99%
02:00 +22°C° 0 mm 1 mps 731 mmHg 99%
03:00 +22°C° 0 mm 1 mps 730 mmHg 98%
04:00 +22°C° 0 mm 1 mps 730 mmHg 98%
05:00 +20°C° 0 mm 0 mps 731 mmHg 98%
06:00 +21°C° 0 mm 0 mps 731 mmHg 97%
07:00 +21°C° 0 mm 0 mps 732 mmHg 96%
08:00 +22°C° 0 mm 0 mps 732 mmHg 89%
09:00 +26°C° 0 mm 1 mps 732 mmHg 83%
10:00 +27°C° 0 mm 1 mps 732 mmHg 76%
11:00 +28°C° 0.6 mm 1 mps 731 mmHg 75%
12:00 +29°C° 0.6 mm 1 mps 730 mmHg 75%
13:00 +30°C° 0.6 mm 1 mps 729 mmHg 74%
14:00 +29°C° 1.1 mm 1 mps 729 mmHg 77%
15:00 +29°C° 1.1 mm 1 mps 728 mmHg 80%
16:00 +29°C° 1.1 mm 1 mps 728 mmHg 84%
17:00 +27°C° 0.4 mm 1 mps 728 mmHg 87%
18:00 +26°C° 0.4 mm 1 mps 729 mmHg 90%
19:00 +25°C° 0.4 mm 1 mps 729 mmHg 93%
20:00 +24°C° 0 mm 1 mps 730 mmHg 94%
21:00 +24°C° 0 mm 1 mps 730 mmHg 94%
22:00 +24°C° 0 mm 1 mps 730 mmHg 95%
23:00 +24°C° 0.1 mm 1 mps 730 mmHg 95%

27 September, Sunday

Time Temperature Precipitation Wind Pressure Humidity
00:00 +24°C° 0.1 mm 1 mps 730 mmHg 95%
01:00 +23°C° 0.1 mm 1 mps 730 mmHg 96%
02:00 +21°C° 1.2 mm 0 mps 730 mmHg 96%
03:00 +21°C° 1.2 mm 0 mps 730 mmHg 97%
04:00 +21°C° 1.2 mm 0 mps 730 mmHg 98%
05:00 +23°C° 1.4 mm 1 mps 730 mmHg 97%
06:00 +24°C° 1.4 mm 1 mps 731 mmHg 97%
07:00 +24°C° 1.4 mm 1 mps 731 mmHg 96%
08:00 +25°C° 0.8 mm 2 mps 731 mmHg 94%
09:00 +26°C° 0.8 mm 2 mps 732 mmHg 91%
10:00 +27°C° 0.8 mm 3 mps 732 mmHg 89%
11:00 +27°C° 1.4 mm 3 mps 731 mmHg 88%
12:00 +27°C° 1.4 mm 3 mps 730 mmHg 87%
13:00 +27°C° 1.4 mm 3 mps 729 mmHg 86%
14:00 +28°C° 0.5 mm 2 mps 729 mmHg 85%
15:00 +28°C° 0.5 mm 2 mps 728 mmHg 84%
16:00 +28°C° 0.5 mm 2 mps 728 mmHg 82%
17:00 +27°C° 0.2 mm 2 mps 728 mmHg 87%
18:00 +26°C° 0.2 mm 1 mps 729 mmHg 92%
19:00 +24°C° 0.2 mm 1 mps 729 mmHg 97%
20:00 +22°C° 0 mm 0 mps 730 mmHg 96%
21:00 +22°C° 0 mm 0 mps 730 mmHg 96%
22:00 +22°C° 0 mm 0 mps 731 mmHg 96%
23:00 +22°C° 0.1 mm 0 mps 731 mmHg 96%

28 September, Monday

Time Temperature Precipitation Wind Pressure Humidity
00:00 +22°C° 0.1 mm 0 mps 731 mmHg 96%
01:00 +22°C° 0.1 mm 0 mps 730 mmHg 96%
02:00 +22°C° 0.6 mm 0 mps 730 mmHg 96%
03:00 +22°C° 0.6 mm 0 mps 731 mmHg 96%
04:00 +22°C° 0.6 mm 0 mps 731 mmHg 96%
05:00 +24°C° 0.6 mm 1 mps 731 mmHg 96%
06:00 +23°C° 0.6 mm 1 mps 732 mmHg 96%
07:00 +23°C° 0.6 mm 1 mps 732 mmHg 97%
08:00 +23°C° 0.9 mm 1 mps 733 mmHg 97%
09:00 +23°C° 0.9 mm 1 mps 733 mmHg 97%
10:00 +22°C° 0.9 mm 0 mps 733 mmHg 97%
11:00 +24°C° 0.4 mm 1 mps 732 mmHg 97%
12:00 +24°C° 0.4 mm 1 mps 732 mmHg 97%
13:00 +24°C° 0.4 mm 1 mps 731 mmHg 96%
14:00 +24°C° 0.1 mm 1 mps 730 mmHg 96%
15:00 +24°C° 0.1 mm 1 mps 730 mmHg 95%
16:00 +24°C° 0.1 mm 1 mps 729 mmHg 94%
17:00 +24°C° 0 mm 1 mps 730 mmHg 95%
18:00 +22°C° 0 mm 0 mps 730 mmHg 97%
19:00 +21°C° 0 mm 0 mps 730 mmHg 98%
20:00 +21°C° 0 mm 0 mps 730 mmHg 98%
21:00 +21°C° 0 mm 0 mps 731 mmHg 97%
22:00 +23°C° 0 mm 1 mps 731 mmHg 97%
23:00 +21°C° 0 mm 0 mps 731 mmHg 97%
Show more